timestamp,wind_dir_avg,wind_spd_avg,wind_spd_max_dir,wind_spd_gust,battery_voltage,lat,long
2021-07-22 00:04:01+00:00,75.0,6.05,78.0,7.19,12.81,47.59359,-54.27349
2021-07-22 00:14:01+00:00,71.0,7.08,68.0,7.98,12.65,47.59359,-54.27349
2021-07-22 00:24:01+00:00,71.0,7.09,66.0,8.46,12.65,47.59359,-54.27349
2021-07-22 00:34:01+00:00,67.0,7.49,65.0,8.41,12.65,47.59359,-54.27349
2021-07-22 00:44:01+00:00,68.0,6.66,67.0,7.32,12.65,47.59359,-54.27349
2021-07-22 00:54:01+00:00,71.0,7.07,70.0,8.2,12.65,47.59359,-54.27349
2021-07-22 01:04:01+00:00,68.0,7.28,73.0,8.09,12.65,47.59359,-54.27349
2021-07-22 01:14:01+00:00,69.0,7.21,70.0,8.07,12.65,47.59359,-54.27349
2021-07-22 01:24:01+00:00,70.0,7.65,70.0,8.45,12.65,47.59359,-54.27349
2021-07-22 01:34:01+00:00,67.0,7.05,59.0,7.91,12.65,47.59359,-54.27349
2021-07-22 01:44:01+00:00,68.0,7.37,70.0,8.27,12.65,47.59359,-54.27349
2021-07-22 01:54:01+00:00,66.0,6.13,74.0,6.81,12.65,47.59359,-54.27349
2021-07-22 02:04:01+00:00,68.0,5.53,71.0,6.11,12.65,47.59359,-54.27349
2021-07-22 02:14:00+00:00,64.0,5.66,65.0,7.27,12.65,47.59359,-54.27349
2021-07-22 02:24:00+00:00,66.0,5.75,67.0,6.41,12.65,47.59359,-54.27349
2021-07-22 02:34:00+00:00,60.0,6.09,54.0,6.91,12.65,47.59359,-54.27349
2021-07-22 02:44:00+00:00,62.0,5.94,62.0,6.51,12.65,47.59359,-54.27349
2021-07-22 02:54:00+00:00,61.0,6.39,62.0,7.51,12.65,47.59359,-54.27349
2021-07-22 03:04:00+00:00,57.0,6.4,57.0,7.93,12.65,47.59359,-54.27349
2021-07-22 03:14:01+00:00,74.0,5.73,74.0,7.81,12.57,47.59359,-54.27349
2021-07-22 03:24:01+00:00,72.0,4.9,66.0,6.16,12.57,47.59359,-54.27349
2021-07-22 03:34:01+00:00,71.0,5.33,82.0,9.47,12.57,47.59359,-54.27349
2021-07-22 03:44:01+00:00,71.0,6.45,82.0,10.2,12.57,47.59359,-54.27349
2021-07-22 03:54:01+00:00,57.0,5.85,58.0,6.71,12.57,47.59359,-54.27349
2021-07-22 04:04:01+00:00,61.0,7.83,74.0,10.43,12.57,47.59359,-54.27349
2021-07-22 04:14:00+00:00,74.0,9.23,78.0,10.76,12.57,47.59359,-54.27349
2021-07-22 04:24:00+00:00,60.0,7.18,67.0,9.46,12.57,47.59359,-54.27349
2021-07-22 04:34:00+00:00,64.0,7.74,72.0,10.7,12.57,47.59359,-54.27349
2021-07-22 04:44:00+00:00,60.0,6.92,64.0,9.95,12.57,47.59359,-54.27349
2021-07-22 04:54:00+00:00,55.0,6.24,52.0,7.31,12.57,47.59359,-54.27349
2021-07-22 05:04:00+00:00,65.0,9.08,70.0,10.89,12.57,47.59359,-54.27349
2021-07-22 05:14:00+00:00,59.0,7.74,69.0,10.65,12.57,47.59359,-54.27349
2021-07-22 05:24:00+00:00,61.0,5.61,71.0,11.06,12.57,47.59359,-54.27349
2021-07-22 05:34:00+00:00,54.0,5.9,57.0,7.05,12.57,47.59359,-54.27349
2021-07-22 05:44:00+00:00,52.0,5.5,54.0,5.89,12.57,47.59359,-54.27349
2021-07-22 05:54:00+00:00,59.0,6.78,72.0,9.77,12.57,47.59359,-54.27349
2021-07-22 06:04:00+00:00,68.0,6.88,79.0,10.69,12.57,47.59359,-54.27349
2021-07-22 06:14:00+00:00,52.0,6.14,61.0,8.51,12.57,47.59359,-54.27349
2021-07-22 06:24:00+00:00,56.0,5.67,70.0,8.45,12.57,47.59359,-54.27349
2021-07-22 06:34:00+00:00,54.0,6.03,55.0,7.22,12.57,47.59359,-54.27349
2021-07-22 06:44:00+00:00,60.0,5.6,59.0,6.96,12.57,47.59359,-54.27349
2021-07-22 06:54:00+00:00,72.0,5.25,77.0,9.35,12.57,47.59359,-54.27349
2021-07-22 07:04:00+00:00,74.0,6.06,80.0,10.84,12.57,47.59359,-54.27349
2021-07-22 07:14:01+00:00,84.0,3.31,87.0,4.3,12.49,47.59359,-54.27349
2021-07-22 07:24:01+00:00,81.0,4.24,79.0,6.53,12.49,47.59359,-54.27349
2021-07-22 07:34:01+00:00,77.0,7.94,78.0,10.94,12.49,47.59359,-54.27349
2021-07-22 07:44:01+00:00,73.0,8.07,78.0,10.7,12.49,47.59359,-54.27349
2021-07-22 07:54:01+00:00,77.0,8.87,78.0,10.94,12.49,47.59359,-54.27349
2021-07-22 08:04:01+00:00,68.0,4.96,81.0,9.32,12.49,47.59359,-54.27349
2021-07-22 08:14:00+00:00,75.0,8.59,77.0,10.72,12.49,47.59359,-54.27349
2021-07-22 08:24:00+00:00,78.0,8.92,80.0,10.84,12.49,47.59359,-54.27349
2021-07-22 08:34:00+00:00,77.0,7.89,83.0,10.89,12.49,47.59359,-54.27349
2021-07-22 08:44:00+00:00,72.0,7.78,76.0,10.87,12.49,47.59359,-54.27349
2021-07-22 08:54:00+00:00,67.0,8.38,73.0,10.75,12.49,47.59359,-54.27349
2021-07-22 09:04:00+00:00,72.0,8.72,77.0,10.84,12.49,47.59359,-54.27349
2021-07-22 09:14:01+00:00,76.0,6.95,84.0,10.3,12.49,47.59359,-54.27349
2021-07-22 09:24:01+00:00,70.0,5.84,79.0,10.24,12.49,47.59359,-54.27349
2021-07-22 09:34:01+00:00,70.0,5.34,73.0,8.17,12.49,47.59359,-54.27349
2021-07-22 09:44:01+00:00,69.0,6.21,75.0,10.05,12.49,47.59359,-54.27349
2021-07-22 09:54:01+00:00,81.0,3.92,108.0,4.93,12.49,47.59359,-54.27349
2021-07-22 10:04:01+00:00,78.0,3.55,79.0,4.73,12.49,47.59359,-54.27349
2021-07-22 10:14:00+00:00,74.0,3.77,74.0,4.58,12.49,47.59359,-54.27349
2021-07-22 10:24:00+00:00,75.0,3.51,66.0,5.06,12.49,47.59359,-54.27349
2021-07-22 10:34:00+00:00,100.0,2.27,104.0,3.47,12.49,47.59359,-54.27349
2021-07-22 10:44:00+00:00,108.0,2.58,122.0,3.9,12.49,47.59359,-54.27349
2021-07-22 10:54:00+00:00,123.0,4.45,131.0,5.36,12.49,47.59359,-54.27349
2021-07-22 11:04:00+00:00,72.0,3.5,90.0,3.99,12.49,47.59359,-54.27349
2021-07-22 11:14:01+00:00,85.0,2.4,83.0,3.35,13.13,47.59359,-54.27349
2021-07-22 11:24:01+00:00,72.0,3.81,57.0,5.19,13.13,47.59359,-54.27349
2021-07-22 11:34:01+00:00,71.0,3.45,68.0,4.39,13.13,47.59359,-54.27349
2021-07-22 11:44:01+00:00,63.0,4.27,65.0,5.52,13.13,47.59359,-54.27349
2021-07-22 11:54:01+00:00,72.0,4.79,73.0,5.4,13.13,47.59359,-54.27349
2021-07-22 12:04:01+00:00,66.0,3.86,58.0,4.48,13.13,47.59359,-54.27349
2021-07-22 12:14:01+00:00,58.0,4.28,54.0,5.01,13.6,47.59359,-54.27349
2021-07-22 12:24:01+00:00,71.0,4.45,71.0,5.1,13.6,47.59359,-54.27349
2021-07-22 12:34:01+00:00,63.0,4.97,58.0,6.05,13.6,47.59359,-54.27349
2021-07-22 12:44:01+00:00,69.0,6.84,73.0,10.14,13.6,47.59359,-54.27349
2021-07-22 12:54:01+00:00,56.0,5.68,60.0,6.8,13.6,47.59359,-54.27349
2021-07-22 13:04:01+00:00,52.0,6.32,60.0,8.43,13.6,47.59359,-54.27349
2021-07-22 13:14:01+00:00,62.0,7.05,66.0,8.89,13.68,47.59359,-54.27349
2021-07-22 13:24:01+00:00,51.0,7.04,64.0,9.16,13.68,47.59359,-54.27349
2021-07-22 13:34:01+00:00,67.0,6.12,68.0,8.89,13.68,47.59359,-54.27349
2021-07-22 13:44:01+00:00,60.0,7.99,68.0,10.16,13.68,47.59359,-54.27349
2021-07-22 13:54:01+00:00,75.0,7.67,84.0,10.56,13.68,47.59359,-54.27349
2021-07-22 14:04:01+00:00,67.0,7.46,66.0,10.27,13.68,47.59359,-54.27349
2021-07-22 14:14:01+00:00,69.0,6.95,82.0,9.87,13.76,47.59359,-54.27349
2021-07-22 14:24:01+00:00,63.0,6.62,77.0,9.71,13.76,47.59359,-54.27349
2021-07-22 14:34:01+00:00,66.0,6.12,70.0,9.27,13.76,47.59359,-54.27349
2021-07-22 14:44:01+00:00,64.0,6.52,74.0,9.84,13.76,47.59359,-54.27349
2021-07-22 14:54:01+00:00,58.0,6.38,63.0,8.18,13.76,47.59359,-54.27349
2021-07-22 15:04:01+00:00,70.0,4.31,55.0,6.06,13.76,47.59359,-54.27349
2021-07-22 15:14:01+00:00,73.0,5.19,96.0,10.08,13.76,47.59359,-54.27349
2021-07-22 15:24:01+00:00,71.0,5.37,79.0,10.34,13.76,47.59359,-54.27349
2021-07-22 15:34:01+00:00,69.0,6.49,75.0,9.72,13.76,47.59359,-54.27349
2021-07-22 15:44:01+00:00,73.0,6.77,72.0,10.7,13.76,47.59359,-54.27349
2021-07-22 15:54:01+00:00,58.0,5.55,62.0,6.34,13.76,47.59359,-54.27349
2021-07-22 16:04:01+00:00,66.0,6.31,71.0,8.84,13.76,47.59359,-54.27349
2021-07-22 16:14:01+00:00,67.0,5.32,67.0,5.77,13.76,47.59359,-54.27349
2021-07-22 16:24:01+00:00,67.0,7.24,72.0,9.92,13.76,47.59359,-54.27349
2021-07-22 16:34:01+00:00,64.0,7.04,71.0,9.86,13.76,47.59359,-54.27349
2021-07-22 16:44:01+00:00,68.0,9.11,70.0,11.0,13.76,47.59359,-54.27349
2021-07-22 16:54:01+00:00,59.0,7.28,65.0,10.63,13.76,47.59359,-54.27349
2021-07-22 17:04:01+00:00,64.0,9.16,68.0,10.86,13.76,47.59359,-54.27349
2021-07-22 17:14:01+00:00,61.0,6.63,64.0,9.8,13.76,47.59359,-54.27349
2021-07-22 17:24:01+00:00,66.0,5.61,75.0,6.67,13.76,47.59359,-54.27349
2021-07-22 17:34:01+00:00,68.0,7.3,78.0,9.87,13.76,47.59359,-54.27349
2021-07-22 17:44:01+00:00,71.0,8.45,75.0,10.74,13.76,47.59359,-54.27349
2021-07-22 17:54:01+00:00,64.0,7.28,64.0,10.2,13.76,47.59359,-54.27349
2021-07-22 18:04:01+00:00,66.0,7.71,65.0,8.93,13.76,47.59359,-54.27349
2021-07-22 18:14:01+00:00,63.0,7.58,66.0,10.1,13.84,47.59359,-54.27349
2021-07-22 18:24:01+00:00,71.0,6.13,79.0,9.53,13.84,47.59359,-54.27349
2021-07-22 18:34:01+00:00,72.0,6.57,77.0,8.77,13.84,47.59359,-54.27349
2021-07-22 18:44:01+00:00,67.0,7.61,73.0,8.92,13.84,47.59359,-54.27349
2021-07-22 18:54:01+00:00,70.0,7.69,70.0,8.61,13.84,47.59359,-54.27349
2021-07-22 19:04:01+00:00,63.0,7.52,63.0,9.1,13.84,47.59359,-54.27349
2021-07-22 19:14:01+00:00,71.0,7.97,75.0,10.06,13.76,47.59359,-54.27349
2021-07-22 19:24:01+00:00,73.0,5.61,83.0,8.53,13.76,47.59359,-54.27349
2021-07-22 19:34:01+00:00,67.0,7.23,74.0,10.29,13.76,47.59359,-54.27349
2021-07-22 19:44:01+00:00,65.0,6.85,72.0,10.95,13.76,47.59359,-54.27349
2021-07-22 19:54:01+00:00,72.0,8.16,74.0,10.42,13.76,47.59359,-54.27349
2021-07-22 20:04:01+00:00,69.0,6.9,74.0,9.77,13.76,47.59359,-54.27349
2021-07-22 20:14:01+00:00,72.0,6.11,76.0,7.4,13.84,47.59359,-54.27349
2021-07-22 20:24:01+00:00,68.0,6.32,65.0,8.05,13.84,47.59359,-54.27349
2021-07-22 20:34:01+00:00,65.0,5.86,60.0,6.83,13.84,47.59359,-54.27349
2021-07-22 20:44:01+00:00,65.0,6.66,66.0,7.82,13.84,47.59359,-54.27349
2021-07-22 20:54:01+00:00,72.0,7.01,75.0,8.8,13.84,47.59359,-54.27349
2021-07-22 21:04:01+00:00,69.0,7.85,69.0,8.63,13.84,47.59359,-54.27349
2021-07-22 21:14:01+00:00,76.0,8.75,70.0,11.14,13.68,47.59359,-54.27349
2021-07-22 21:24:01+00:00,70.0,7.54,79.0,10.54,13.68,47.59359,-54.27349
2021-07-22 21:34:01+00:00,70.0,8.78,75.0,10.59,13.68,47.59359,-54.27349
2021-07-22 21:44:01+00:00,73.0,8.95,73.0,11.29,13.68,47.59359,-54.27349
2021-07-22 21:54:01+00:00,77.0,9.74,78.0,11.37,13.68,47.59359,-54.27349
2021-07-22 22:04:01+00:00,76.0,8.36,82.0,11.11,13.68,47.59359,-54.27349
2021-07-22 22:14:01+00:00,77.0,9.1,75.0,11.31,13.44,47.59359,-54.27349
2021-07-22 22:24:01+00:00,77.0,9.05,76.0,11.48,13.44,47.59359,-54.27349
2021-07-22 22:34:01+00:00,80.0,4.95,80.0,9.45,13.44,47.59359,-54.27349
2021-07-22 22:44:01+00:00,75.0,10.16,76.0,11.71,13.44,47.59359,-54.27349
2021-07-22 22:54:01+00:00,77.0,7.22,74.0,11.69,13.44,47.59359,-54.27349
2021-07-22 23:04:01+00:00,76.0,7.01,81.0,10.95,13.44,47.59359,-54.27349
2021-07-22 23:14:01+00:00,73.0,4.7,76.0,9.1,13.05,47.59359,-54.27349
2021-07-22 23:24:01+00:00,78.0,9.65,73.0,11.55,13.05,47.59359,-54.27349
2021-07-22 23:34:01+00:00,78.0,8.03,76.0,10.94,13.05,47.59359,-54.27349
2021-07-22 23:44:01+00:00,73.0,5.02,76.0,9.23,13.05,47.59359,-54.27349
2021-07-22 23:54:01+00:00,88.0,4.85,89.0,10.13,13.05,47.59359,-54.27349
